TimeCST,TemperatureF,Dew PointF,Humidity,Sea Level PressureIn,VisibilityMPH,Wind Direction,Wind SpeedMPH,Gust SpeedMPH,PrecipitationIn,Events,Conditions,WindDirDegrees,DateUTC
12:52 AM,39.0,36.0,89,29.92,-9999.0,East,5.8,-,N/A,,Unknown,100,2012-12-09 06:52:00
1:52 AM,39.0,37.0,93,29.91,-9999.0,ESE,6.9,-,N/A,,Unknown,110,2012-12-09 07:52:00
2:52 AM,39.9,37.0,89,29.90,-9999.0,East,3.5,-,N/A,,Unknown,90,2012-12-09 08:52:00
3:52 AM,39.9,37.0,89,29.89,-9999.0,Calm,Calm,-,N/A,,Unknown,0,2012-12-09 09:52:00
4:52 AM,39.9,37.9,93,29.88,-9999.0,NNE,3.5,-,0.01,,Unknown,30,2012-12-09 10:52:00
5:52 AM,39.9,37.9,93,29.88,-9999.0,Calm,Calm,-,N/A,,Unknown,0,2012-12-09 11:52:00
6:52 AM,39.9,37.9,93,29.89,-9999.0,Calm,Calm,-,N/A,,Unknown,0,2012-12-09 12:52:00
7:52 AM,39.9,37.9,93,29.91,-9999.0,West,3.5,-,N/A,,Unknown,280,2012-12-09 13:52:00
8:52 AM,39.9,37.9,93,29.90,-9999.0,NW,6.9,-,N/A,,Unknown,310,2012-12-09 14:52:00
9:52 AM,41.0,39.0,93,29.91,-9999.0,NW,5.8,-,N/A,,Unknown,310,2012-12-09 15:52:00
10:52 AM,43.0,37.9,82,29.91,-9999.0,Variable,5.8,-,N/A,,Unknown,0,2012-12-09 16:52:00
11:52 AM,42.1,37.0,82,29.90,-9999.0,WNW,9.2,-,N/A,,Unknown,300,2012-12-09 17:52:00
12:52 PM,43.0,37.0,80,29.89,-9999.0,WNW,8.1,-,N/A,,Unknown,290,2012-12-09 18:52:00
1:52 PM,41.0,35.1,79,29.92,-9999.0,WNW,8.1,20.7,N/A,,Unknown,290,2012-12-09 19:52:00
2:52 PM,41.0,30.0,65,29.92,-9999.0,WNW,13.8,-,N/A,,Unknown,300,2012-12-09 20:52:00
3:52 PM,37.0,27.0,67,29.94,-9999.0,WNW,16.1,23.0,N/A,,Unknown,300,2012-12-09 21:52:00
4:52 PM,32.0,21.9,66,29.98,-9999.0,WNW,16.1,25.3,N/A,,Unknown,300,2012-12-09 22:52:00
5:52 PM,28.9,18.0,64,30.01,-9999.0,WNW,10.4,23.0,N/A,,Unknown,300,2012-12-09 23:52:00
6:52 PM,28.0,17.1,63,30.03,-9999.0,WNW,8.1,21.9,N/A,,Unknown,300,2012-12-10 00:52:00
7:52 PM,27.0,16.0,63,30.05,-9999.0,WNW,10.4,20.7,N/A,,Unknown,290,2012-12-10 01:52:00
8:52 PM,25.0,12.9,60,30.06,-9999.0,NW,13.8,23.0,N/A,,Unknown,310,2012-12-10 02:52:00
9:52 PM,23.0,12.0,63,30.06,-9999.0,WNW,13.8,23.0,N/A,,Unknown,300,2012-12-10 03:52:00
10:52 PM,21.9,12.0,66,30.07,-9999.0,NW,15.0,23.0,N/A,,Unknown,310,2012-12-10 04:52:00
11:52 PM,21.9,12.0,66,30.09,-9999.0,WNW,9.2,16.1,N/A,,Unknown,300,2012-12-10 05:52:00